Location: Unspecified
(0.0000°N, 0.0000°E)
Time: 19:35:35
(UTC+00:00)

Vanguard 1 - Pass Details

Date: 17 April 2026
Orbit: 654 x 3817 km, 34.2° (Epoch: 18 May)

Event Time Altitude Azimuth Distance (km) Brightness Sun altitude
Rises 17:50:47 0° 218° (SW) 4,810 14.0 2.1°
Reaches altitude 10° 17:53:35 10° 212° (SSW) 4,156 13.6 1.5°
Maximum altitude 18:05:17 50° 139° (SE) 3,201 12.4 -1.4°
Drops below altitude 10° 18:24:57 10° 69° (ENE) 6,715 13.8 -6.2°
Sets 18:30:56 0° 65° (ENE) 7,906 14.2 -7.7°
